Theta_e
315 308 307 305 307 308 312 309 300 303 303 302 304 302 303 303 302 303 302 303 303 303 303 303 303 303 303 303 304 304 306 307 306 305 304 303 303 303 304 305 305 304 305 305 305 305 305 305 305 304 306 307 305 306 306 308 314 319 323 319 318 321 320 322 324 319 314 315 317 313 312 316 317 317 314 312 315 320 319 319 319 313 309 310 310 309 310 313
310 305 304 302 304 303 303 302 300 302 302 303 303 302 303 303 303 303 302 303 303 303 303 303 303 303 303 303 304 305 306 307 306 304 303 303 303 304 305 305 304 304 305 305 305 305 306 307 305 304 308 308 305 307 309 306 312 324 322 314 320 325 320 319 319 315 313 311 313 312 310 313 315 315 313 313 321 322 321 323 323 322 318 311 307 308 310 312
310 307 304 301 303 302 300 300 302 302 302 303 302 302 303 302 303 303 303 304 303 304 303 303 303 303 303 303 304 306 307 306 306 304 303 303 304 304 305 305 304 304 305 305 305 304 305 307 303 305 310 309 306 308 312 309 311 319 317 316 325 325 318 316 314 310 309 308 309 311 308 311 313 313 314 315 320 319 320 323 320 323 326 320 311 306 309 311
306 306 304 302 302 301 300 301 302 302 303 302 303 304 304 304 305 305 305 305 305 305 303 303 303 303 303 303 305 306 306 307 306 303 303 303 304 304 305 304 304 305 305 304 305 304 304 304 302 307 309 309 309 309 310 309 309 312 314 321 322 317 314 312 310 308 307 305 306 310 309 309 309 310 316 316 315 315 318 320 317 317 320 321 313 306 308 310
303 305 305 302 300 300 301 303 304 304 304 304 305 305 305 306 305 306 306 305 305 304 303 303 303 303 303 304 305 305 307 309 306 302 303 303 303 305 305 304 305 305 305 304 304 303 304 302 303 310 311 308 311 310 307 305 307 311 313 316 315 312 311 308 307 306 305 304 306 310 308 307 307 309 316 317 314 314 315 316 319 319 315 317 314 307 308 310
303 304 304 302 301 301 302 305 306 305 306 306 306 305 305 306 305 306 306 305 305 304 304 303 303 303 303 305 305 305 307 308 305 302 302 302 304 305 305 305 305 305 304 304 304 302 304 304 305 312 313 308 308 307 306 304 305 311 312 309 309 309 308 307 307 305 304 305 306 309 305 304 308 308 312 315 314 315 315 312 313 313 307 306 307 307 309 310
303 303 303 302 301 301 302 305 306 305 305 305 305 304 305 304 304 305 305 304 303 303 303 302 303 302 304 305 305 307 309 306 302 302 302 301 304 305 305 305 305 304 305 304 303 304 306 308 307 310 311 308 306 306 306 306 306 310 311 307 306 305 305 305 305 306 306 306 305 304 302 303 308 305 306 310 309 310 309 302 298 299 298 299 304 307 308 309
302 302 302 302 302 301 302 305 305 304 304 304 303 303 304 304 304 305 304 303 303 304 303 302 303 302 304 305 307 312 310 303 301 302 302 301 304 305 305 305 305 304 304 304 303 303 306 306 305 306 308 306 304 306 306 307 309 310 310 307 305 304 305 305 305 308 308 308 304 301 303 305 305 303 303 305 305 304 302 298 295 295 298 300 303 306 306 308
302 302 302 302 302 301 303 305 304 303 303 303 303 303 303 303 303 304 303 303 303 303 302 303 302 302 305 305 309 314 307 302 302 302 302 302 303 305 305 305 305 305 304 305 303 303 305 305 305 304 306 305 304 308 307 307 308 308 308 308 306 305 306 304 306 307 307 307 303 301 304 305 302 301 304 304 303 303 301 302 298 299 305 303 302 305 306 307
301 302 302 302 302 302 303 305 304 303 303 303 303 303 303 303 303 303 303 303 303 302 302 302 302 304 307 306 309 311 305 302 303 302 302 302 303 305 305 305 305 305 304 304 304 304 305 305 303 301 304 305 305 307 307 307 307 307 309 309 306 306 304 303 305 304 304 305 302 301 303 303 301 301 305 305 302 301 309 313 302 300 306 302 301 303 304 306
301 302 302 302 302 302 303 305 304 303 302 303 303 303 303 303 303 303 303 302 302 302 302 302 303 306 307 306 310 308 302 303 302 302 302 302 304 305 305 305 305 305 305 304 303 303 304 303 300 300 303 305 306 307 305 304 304 305 308 308 307 308 304 302 306 303 302 303 302 301 301 301 299 301 307 306 301 302 313 322 314 307 302 297 299 301 302 305
301 302 302 302 303 302 304 306 305 303 303 303 302 302 303 303 303 302 303 303 303 303 302 303 304 306 306 306 307 305 302 303 302 301 302 303 304 304 305 305 305 305 305 304 303 303 303 303 302 304 305 304 306 307 304 304 304 304 306 306 309 313 306 302 306 303 301 303 303 301 301 303 302 306 313 306 301 304 311 318 319 313 303 297 298 298 301 303
301 302 301 302 302 303 305 306 305 304 303 302 303 303 302 303 303 303 304 304 304 304 304 305 305 306 308 307 304 302 303 302 302 301 302 304 304 304 304 304 305 305 305 305 304 303 303 303 304 307 306 309 309 303 303 305 304 304 304 307 312 315 309 301 303 304 301 302 303 301 301 304 304 309 311 302 301 307 308 310 312 311 305 300 298 297 299 300
301 301 301 302 302 303 306 306 305 303 302 303 304 304 304 305 305 305 305 305 305 305 305 306 306 306 307 307 303 302 303 301 302 302 302 303 304 304 304 304 305 305 305 305 304 304 304 303 304 305 303 308 306 300 307 311 308 306 303 308 310 308 308 303 301 306 302 302 303 300 303 306 302 304 303 300 304 307 303 302 302 304 303 301 300 298 298 298
301 301 302 302 302 304 306 306 304 303 303 304 305 305 305 305 306 305 306 306 306 307 308 307 306 307 308 305 302 302 302 301 302 301 301 303 303 304 303 304 304 304 305 304 304 304 303 302 304 306 303 302 304 307 312 311 310 307 303 310 309 304 308 305 299 303 301 301 303 301 304 307 303 302 302 301 305 303 300 300 298 299 298 298 298 297 298 297
301 301 301 302 303 305 306 305 304 304 305 305 305 305 305 306 306 306 306 307 308 309 309 308 306 307 310 305 301 302 301 301 301 300 301 302 303 304 303 304 304 304 304 303 304 303 302 305 304 302 302 303 309 313 312 311 314 310 303 306 307 304 308 304 299 298 298 299 302 301 303 305 304 303 301 300 300 299 300 300 298 297 295 295 295 295 296 296
301 301 301 302 303 306 307 305 304 304 305 305 306 305 305 306 306 307 306 305 307 306 305 306 305 306 307 303 301 302 300 300 300 300 301 301 303 303 302 303 302 302 304 303 304 303 303 305 302 301 304 304 305 307 309 313 315 311 307 306 305 303 305 305 302 298 297 299 301 301 301 303 303 300 297 297 296 297 299 299 298 296 294 293 293 293 294 295
302 301 302 302 304 306 306 304 304 304 305 306 306 306 306 305 305 306 307 306 304 305 305 304 305 307 305 302 300 300 300 300 300 300 301 302 302 303 302 302 300 301 306 305 303 304 304 304 305 307 310 306 306 311 311 306 302 303 306 306 304 304 304 305 304 299 297 298 299 301 301 301 300 297 297 296 294 296 298 298 297 295 294 293 292 293 294 295
303 303 302 302 304 306 306 304 304 304 305 305 305 305 305 305 305 304 304 305 306 306 307 305 304 306 303 300 300 300 300 299 300 300 301 302 302 302 301 300 301 305 307 306 305 306 306 309 310 307 307 306 305 307 304 299 300 302 304 304 303 305 304 302 303 301 297 298 301 301 299 299 299 298 299 297 295 297 299 297 295 294 293 292 292 292 293 295
304 304 303 303 305 306 306 304 304 305 305 306 306 306 308 309 308 307 305 304 304 302 304 305 302 302 302 299 300 300 300 299 300 300 301 301 301 302 300 300 307 310 308 308 307 303 304 311 309 305 307 305 301 301 300 300 302 303 305 306 304 305 305 302 301 300 298 300 305 302 297 298 298 299 299 297 297 298 297 296 294 293 292 291 292 292 293 294
303 304 303 303 305 306 306 305 305 305 306 307 308 308 311 310 305 305 305 303 300 298 301 302 298 299 300 298 299 299 298 299 299 299 301 301 301 301 300 303 310 308 305 306 306 304 307 309 304 303 305 303 301 302 301 302 304 304 304 304 303 304 305 301 298 299 298 299 303 300 298 299 298 299 300 298 297 296 296 294 293 293 292 291 292 292 293 293
303 304 303 302 305 306 306 306 306 305 306 307 308 309 309 307 305 304 305 304 301 298 299 299 298 301 299 298 299 297 299 302 299 300 300 301 303 302 303 308 310 306 304 306 307 309 312 305 299 300 300 300 300 300 300 302 304 304 301 301 304 302 302 302 297 298 299 298 302 302 299 299 298 299 300 298 297 295 294 294 292 292 292 291 292 292 292 292
304 304 303 303 305 305 306 307 306 306 307 306 307 308 306 306 306 304 305 309 306 301 302 302 302 304 302 300 299 298 301 301 301 302 300 302 306 304 307 313 313 307 305 311 310 306 304 300 298 298 299 301 301 299 300 301 303 303 300 302 305 300 300 303 300 298 298 296 300 301 300 300 299 299 298 296 297 296 293 293 291 290 291 291 291 291 291 291
304 303 303 304 304 305 306 306 305 306 306 306 307 307 306 307 307 306 308 310 307 304 303 302 301 302 302 301 299 300 302 300 300 301 299 304 306 303 307 310 311 308 304 310 312 304 299 298 296 298 300 301 301 300 300 301 304 305 302 302 305 300 297 300 300 298 297 295 296 299 303 304 300 301 299 297 297 295 292 292 291 290 290 291 290 290 290 290
303 303 302 303 304 306 306 306 306 304 305 307 307 306 306 307 306 306 311 310 309 308 303 300 300 300 300 300 299 300 301 300 299 298 298 302 304 304 304 302 305 306 306 306 307 303 300 296 295 300 300 299 301 303 303 302 305 306 303 301 302 300 298 300 301 300 300 300 297 298 306 308 304 302 300 299 297 293 292 292 291 290 290 290 290 289 289 289
303 303 302 303 305 305 306 307 306 304 306 307 307 307 306 308 306 303 312 316 313 309 305 302 301 300 300 300 299 299 302 301 297 296 299 299 300 302 302 301 300 303 308 305 302 302 299 294 295 300 302 301 301 303 303 302 303 303 300 298 299 300 299 301 300 299 302 303 296 295 303 307 306 304 301 299 297 293 293 292 291 290 289 289 289 289 289 289
304 303 302 303 305 305 306 306 306 306 306 305 307 308 306 308 306 302 311 318 311 306 305 304 301 300 301 299 297 299 301 300 297 297 298 298 299 299 301 304 300 301 304 303 302 302 299 297 298 299 302 302 301 303 302 301 304 303 297 296 301 300 299 301 299 298 300 300 297 295 299 301 304 305 300 297 297 295 294 293 291 290 289 289 289 289 289 288
304 303 302 303 304 305 305 305 306 306 306 306 306 307 308 307 306 307 312 312 307 305 306 305 301 300 302 299 298 302 302 299 300 299 296 296 298 300 304 305 302 304 302 301 303 304 298 301 301 301 303 302 303 303 300 299 301 300 296 296 300 298 299 300 299 301 299 297 302 300 297 300 306 306 299 296 297 295 294 293 292 291 290 289 289 289 289 289
303 304 303 303 304 305 307 307 306 306 306 307 305 306 308 305 306 311 312 307 305 305 305 303 301 301 302 301 302 305 302 300 302 300 297 297 297 300 304 303 305 308 300 300 308 306 300 301 300 301 303 303 305 300 295 299 299 297 295 296 298 297 299 299 299 304 301 301 307 303 297 300 307 307 300 297 299 296 294 293 292 291 290 290 290 289 289 289
302 304 303 303 304 305 308 307 306 307 307 306 306 307 306 307 318 320 311 308 306 304 305 302 301 304 304 302 302 303 301 302 303 301 300 300 299 301 300 299 305 308 304 303 305 302 298 298 298 300 301 300 301 296 294 298 297 295 296 296 296 296 296 298 300 301 302 308 309 300 297 299 303 307 302 298 298 297 295 293 292 291 291 290 290 289 289 289
303 303 303 304 304 305 306 305 306 308 307 306 305 305 304 309 321 321 306 305 305 304 305 302 303 308 307 302 301 303 303 304 303 305 306 303 306 308 301 302 306 308 316 315 303 297 296 299 302 300 299 297 298 297 294 295 295 295 297 297 298 299 297 299 303 300 303 313 307 297 298 298 301 308 304 298 295 295 296 294 291 291 291 290 290 290 289 289
303 303 304 304 305 306 305 304 306 307 306 306 303 307 312 309 312 315 308 307 306 306 305 301 302 307 306 301 299 302 303 303 304 307 308 305 308 307 301 305 306 306 320 318 303 303 302 301 301 298 298 297 299 300 295 295 297 295 298 302 305 307 304 305 308 305 306 309 299 294 297 298 300 304 301 297 293 293 295 294 292 291 290 290 290 290 289 288
305 303 303 304 305 305 305 305 306 306 306 305 305 314 321 314 310 312 311 308 303 304 303 300 301 302 302 302 299 299 299 300 303 304 303 302 305 304 299 302 302 300 308 306 301 310 310 304 299 299 300 296 298 304 300 298 298 296 300 307 309 307 305 308 308 304 305 303 295 292 295 298 301 300 297 294 293 293 293 292 292 292 290 290 289 289 289 288
306 303 302 304 304 303 304 305 305 306 305 304 311 315 312 311 311 306 309 310 302 301 303 302 302 300 299 300 301 300 300 300 301 302 302 301 303 306 303 300 299 302 307 304 299 304 309 308 302 301 302 297 296 300 299 299 300 299 298 299 305 307 305 307 309 307 305 302 296 293 296 305 306 297 294 293 292 292 293 292 291 291 290 290 289 289 290 289
307 302 302 303 303 303 304 304 305 307 304 309 319 316 309 314 312 305 309 311 303 302 303 300 301 302 303 302 301 300 300 299 300 300 302 303 306 310 307 303 301 302 306 308 304 300 301 304 300 296 297 296 298 297 294 298 301 298 294 296 303 308 306 304 303 302 300 300 301 297 299 306 302 294 292 292 292 292 292 291 291 291 290 290 290 290 291 290
306 302 303 303 302 303 303 304 307 305 306 314 317 313 317 319 307 302 306 304 301 303 302 301 302 303 306 305 303 300 298 298 300 301 302 303 305 307 305 305 303 301 304 309 310 303 301 302 298 295 296 295 297 297 295 299 301 295 296 301 300 298 304 305 298 295 295 299 302 299 299 302 298 295 293 291 292 292 291 291 290 290 290 290 291 291 291 291
304 302 302 302 302 303 303 305 306 306 312 316 310 311 318 312 300 302 305 301 300 301 300 304 305 303 305 305 303 302 299 299 300 302 303 302 303 303 304 303 298 298 301 301 305 306 305 304 299 296 300 296 292 296 297 297 297 297 299 301 296 293 300 303 299 300 300 301 302 299 300 302 303 301 293 290 293 292 291 291 290 289 290 290 291 291 291 290
304 303 301 302 303 302 304 306 304 309 317 313 308 313 312 304 301 303 304 302 301 300 299 302 303 302 303 303 303 301 299 302 303 303 303 302 302 303 305 305 298 297 298 296 300 303 302 304 301 294 297 297 292 296 300 296 293 297 298 295 295 299 303 301 299 303 303 301 303 302 298 298 303 303 296 292 293 293 292 291 291 290 289 290 291 291 291 290
305 307 305 302 302 303 305 306 305 312 317 310 312 313 305 304 305 302 302 302 302 301 302 302 300 300 302 304 305 300 298 302 303 302 302 302 302 301 302 304 301 298 297 296 300 301 298 302 303 295 293 296 295 298 303 301 295 295 296 294 296 300 303 301 298 302 303 301 303 304 301 300 301 301 301 297 293 292 293 291 291 290 289 290 290 291 291 291
304 310 309 301 302 305 304 306 310 314 312 310 315 312 303 305 306 300 298 300 301 301 302 302 300 300 303 303 303 300 299 302 300 300 303 301 302 302 300 301 302 299 297 295 298 302 298 298 304 300 293 295 300 300 302 304 302 299 298 299 298 296 298 299 296 298 303 303 304 303 302 304 301 297 300 299 293 292 293 292 291 291 290 290 291 291 292 291
305 313 310 301 303 305 304 309 312 311 309 308 310 308 304 305 305 302 299 297 300 300 299 301 301 302 303 302 300 299 302 305 301 301 303 300 302 302 298 298 302 300 298 297 299 303 299 297 304 304 297 299 302 297 295 299 301 301 303 304 302 298 299 301 298 297 297 299 303 302 300 303 300 295 296 295 292 292 293 292 292 291 291 291 291 291 291 291
310 313 306 301 303 304 308 312 305 301 309 308 304 304 305 304 302 303 301 298 299 299 297 299 301 301 302 301 300 300 303 307 303 302 304 302 302 300 297 296 300 299 303 304 300 301 300 298 302 302 299 299 296 291 291 295 296 297 300 301 301 301 301 302 302 300 297 295 297 297 298 300 296 291 292 292 291 292 292 292 292 291 291 291 291 291 291 290
315 311 303 301 304 304 308 309 302 303 311 306 300 302 304 304 303 301 301 301 301 299 299 301 301 301 300 299 300 300 300 303 304 305 306 304 300 297 296 298 299 297 303 303 299 298 299 299 300 302 303 298 292 290 291 292 293 295 298 297 298 300 301 301 302 301 300 299 296 295 298 299 294 290 291 291 291 292 292 291 291 291 291 291 290 290 290 290
314 307 303 302 302 303 308 309 306 307 311 306 304 305 303 302 303 303 304 304 302 301 302 303 301 299 300 299 300 300 300 301 302 302 302 302 301 297 295 298 298 296 299 302 301 299 300 302 301 302 305 301 299 299 297 295 294 297 300 298 296 299 299 298 296 295 297 301 299 297 299 299 293 289 290 291 291 291 291 291 291 290 290 290 290 290 289 289
307 303 305 305 302 304 308 311 313 312 313 312 309 307 305 303 302 303 304 303 302 302 303 302 299 299 300 299 299 301 301 300 300 300 299 300 302 299 297 298 297 297 301 301 300 297 298 303 302 300 303 302 302 304 303 302 298 296 298 297 295 297 297 298 299 297 298 299 297 298 300 298 293 290 290 291 290 291 291 291 291 290 289 290 289 289 289 288
304 304 309 308 306 307 304 304 311 315 315 313 308 305 306 306 304 300 300 301 301 300 300 300 299 300 300 299 300 302 302 299 298 300 301 302 305 301 296 297 298 298 301 301 299 300 301 301 299 300 303 301 300 301 301 301 300 298 298 298 297 296 295 298 301 299 300 299 297 297 298 297 295 293 291 290 290 290 290 291 290 290 289 289 289 288 288 288
303 306 308 306 306 308 305 304 310 311 307 306 305 303 303 305 304 300 298 300 300 299 300 300 298 300 300 300 302 303 302 299 298 300 300 303 306 301 293 294 298 297 298 298 297 300 302 300 299 300 300 299 299 299 297 296 296 297 298 298 299 297 295 297 298 298 299 300 298 297 296 296 296 295 294 292 290 289 290 291 290 289 289 289 288 288 287 287
301 304 304 300 301 304 303 304 308 308 302 301 302 302 302 305 305 302 301 299 298 299 301 301 300 301 302 302 301 302 302 300 301 303 302 302 303 301 297 295 296 296 296 295 296 299 303 303 300 297 297 298 296 296 297 295 295 295 295 296 296 296 296 297 297 297 298 298 297 297 297 297 296 295 296 295 292 291 291 291 290 289 289 288 288 288 287 287
301 303 300 297 302 307 304 301 304 306 304 301 303 304 304 306 307 304 301 301 302 301 299 303 305 303 301 300 298 300 303 302 302 303 303 303 301 301 303 300 296 294 294 295 296 298 301 304 300 297 297 297 296 297 296 295 295 295 294 294 294 294 295 296 295 295 295 296 296 296 296 296 295 295 295 294 293 292 290 290 289 289 289 288 287 287 286 286
304 305 302 300 304 306 303 302 304 307 304 301 303 305 304 307 309 304 301 303 305 303 298 302 307 304 302 300 298 300 303 302 300 300 301 302 301 302 306 304 301 297 295 296 297 295 296 301 300 298 299 298 299 300 296 295 296 295 294 294 293 293 294 294 294 294 294 295 295 294 294 294 294 294 293 291 290 290 289 289 289 288 288 288 287 286 286 286
301 301 301 304 306 303 303 304 304 307 306 302 305 307 304 306 308 304 303 304 304 304 303 306 308 305 301 300 299 302 302 300 300 299 299 300 300 301 302 300 302 303 298 296 297 295 295 298 298 298 299 299 299 299 298 297 296 296 297 296 294 294 295 295 295 294 294 295 294 294 295 294 293 293 291 290 289 289 289 289 288 287 287 287 287 286 286 286
300 299 300 304 305 304 305 304 301 304 308 307 306 306 304 305 304 302 303 304 302 302 304 306 306 302 302 304 304 303 301 299 298 298 298 298 298 298 297 296 300 305 301 297 296 295 294 298 300 299 301 300 298 296 297 297 297 300 301 299 298 297 296 296 295 294 293 294 295 295 295 294 293 291 291 290 289 288 288 288 288 287 286 286 287 286 286 286
Wind_Speed
12 10 6 4 4 2 2 2 5 7 9 10 10 11 10 10 10 10 10 9 8 7 6 5 4 4 2 3 4 7 6 5 8 15 13 9 12 13 13 12 13 12 11 11 10 5 2 5 6 4 5 3 4 1 2 3 3 3 3 2 1 2 3 4 5 4 2 2 4 5 3 0 3 4 1 1 2 2 2 3 3 3 4 6 3 3 4 3
11 9 5 5 4 1 2 6 7 8 9 10 11 11 11 11 11 10 10 9 9 8 6 5 5 5 2 4 6 7 6 4 8 15 12 11 14 13 12 12 12 10 10 10 9 7 4 3 5 4 4 3 2 2 2 2 3 3 3 2 2 4 4 4 4 3 2 2 4 4 2 2 3 2 2 2 4 4 4 5 2 4 6 4 4 5 5 6
10 7 4 5 4 2 6 7 7 7 8 9 9 10 10 10 9 9 9 8 8 7 6 5 5 4 3 5 7 8 6 3 5 8 10 13 13 12 12 12 10 8 9 9 7 5 3 0 1 4 4 3 1 2 3 2 1 2 3 1 4 5 3 3 3 2 3 3 3 4 1 1 3 1 1 2 5 4 3 6 3 5 6 3 4 4 4 6
9 7 5 5 2 4 6 5 5 5 6 6 7 7 8 8 7 7 6 6 5 5 5 5 5 3 5 7 7 8 4 5 3 5 11 14 13 12 12 10 8 8 8 7 5 5 3 2 3 4 4 3 3 3 3 2 1 2 3 3 4 2 1 2 3 3 4 3 2 4 3 4 2 0 1 1 4 7 6 7 7 7 6 4 4 4 4 6
8 6 5 5 5 5 4 3 3 3 3 5 6 7 7 7 7 6 5 4 3 4 6 5 5 5 7 8 8 7 3 4 3 7 13 13 12 11 10 9 8 7 7 6 5 4 4 3 5 5 4 2 3 4 1 2 1 2 1 3 3 3 1 2 2 3 2 1 2 3 4 4 1 1 2 3 4 6 4 4 6 6 5 3 3 4 5 7
5 5 3 6 6 4 3 2 2 2 3 4 6 6 6 6 5 4 3 2 3 6 7 6 7 8 9 9 7 4 4 2 4 10 14 13 10 9 8 9 9 7 6 5 5 4 4 5 5 4 3 3 2 2 0 4 2 1 1 1 2 3 1 2 2 2 0 1 3 3 3 3 4 4 2 5 9 9 4 2 3 4 4 3 3 4 5 7
4 3 3 5 5 3 2 2 2 1 2 3 4 4 4 3 3 2 2 3 5 8 8 7 9 9 10 9 5 2 5 2 5 11 15 13 8 7 7 8 8 6 5 6 6 3 4 7 5 3 4 3 1 2 0 3 4 3 1 2 1 3 1 2 2 3 1 2 5 2 3 3 3 5 2 5 12 10 5 1 1 5 4 3 3 4 6 8
1 3 4 4 3 2 2 2 1 0 1 1 2 2 2 2 3 3 3 5 7 8 8 9 9 9 10 7 5 3 3 0 5 11 15 13 7 6 6 7 7 6 9 11 7 3 4 5 3 3 3 2 3 2 1 1 3 3 1 2 1 1 3 4 3 2 3 3 4 3 4 4 4 2 3 10 12 6 5 3 3 4 3 1 3 4 6 7
5 6 5 3 2 1 1 1 1 1 1 1 1 1 2 3 4 5 6 7 8 8 8 9 9 9 8 5 5 3 1 1 5 11 16 14 6 4 5 7 8 9 11 12 8 5 3 1 2 3 3 2 3 2 1 0 1 1 2 1 1 1 4 5 2 3 5 3 4 6 6 6 4 1 5 10 7 6 5 3 4 4 3 2 3 4 5 6
5 5 4 2 1 1 1 1 1 2 2 3 3 3 5 6 7 8 9 9 8 8 8 9 8 8 6 2 6 3 1 1 5 10 16 14 5 2 4 7 9 9 9 9 10 8 4 4 4 4 5 3 3 1 2 1 1 2 3 2 2 3 4 4 3 4 6 3 4 5 7 7 2 1 4 5 4 5 5 4 5 4 4 4 3 4 5 7
4 4 3 2 1 0 1 2 3 3 4 5 6 7 8 9 10 10 10 9 9 9 9 8 8 6 4 3 6 3 0 3 6 10 15 11 2 2 4 7 8 9 7 7 8 7 4 5 7 5 2 1 2 3 2 1 2 2 3 1 3 5 3 6 5 5 6 1 3 3 6 5 2 1 6 6 4 4 5 5 5 4 5 5 4 5 5 8
3 2 3 2 2 1 2 3 4 5 5 7 8 9 10 11 11 11 10 9 9 9 9 9 8 6 5 7 5 2 1 3 6 10 13 8 3 4 5 6 6 8 6 6 5 4 4 5 8 6 0 2 2 2 1 2 3 1 2 0 6 7 3 7 5 3 4 1 6 4 3 4 0 6 9 5 5 4 4 6 6 4 5 5 5 5 5 7
4 3 3 3 3 2 3 4 4 5 7 8 8 9 11 12 12 12 11 10 9 10 9 9 6 3 4 4 2 2 2 3 6 9 9 8 4 4 6 5 4 7 6 6 5 4 5 4 7 6 2 5 2 1 2 4 4 1 3 3 4 6 3 5 4 5 2 0 8 6 2 4 5 10 10 4 5 5 6 7 7 5 5 5 5 5 6 8
4 3 3 3 3 3 4 4 5 7 9 9 9 10 12 14 14 12 11 9 8 8 7 5 3 2 3 1 3 2 3 3 8 11 10 9 4 3 4 4 3 4 4 6 7 7 7 6 9 8 3 4 2 1 4 5 4 0 2 2 2 3 3 4 4 5 2 1 8 6 1 6 7 10 8 4 3 5 8 9 7 7 6 5 5 4 6 6
4 4 3 3 3 4 4 5 7 10 12 11 11 12 13 13 11 8 7 6 5 5 4 3 2 3 4 2 3 0 4 4 10 15 13 10 6 2 3 4 4 4 5 7 9 10 7 6 8 5 1 2 3 3 4 4 4 3 2 2 2 1 4 5 3 4 3 3 7 6 2 6 9 10 4 3 3 4 8 10 8 8 8 7 6 5 5 5
3 4 3 3 4 4 6 7 9 13 12 11 11 12 12 11 8 6 5 4 4 4 3 2 2 4 4 1 1 1 4 6 11 14 11 7 8 7 3 6 6 6 8 8 8 7 8 7 5 3 1 3 5 4 3 3 3 3 2 1 2 1 3 5 1 3 2 3 5 4 1 5 7 8 5 5 7 6 6 9 9 8 8 7 6 5 4 5
4 4 3 3 4 5 6 8 12 12 10 10 10 10 9 8 6 6 6 6 6 4 4 2 2 4 3 1 1 2 4 6 9 11 9 5 7 8 4 5 5 7 7 7 5 3 8 7 1 1 3 4 3 3 3 3 3 3 3 1 2 2 2 4 2 2 4 1 3 3 2 7 9 11 11 8 6 6 6 8 9 7 7 6 5 5 4 4
5 4 3 3 4 6 7 9 12 10 8 9 10 10 10 9 7 5 3 3 3 2 3 3 3 4 2 3 1 4 8 8 9 10 8 4 3 7 7 5 4 4 4 5 5 5 5 4 2 1 4 4 4 4 4 1 2 1 1 1 2 2 2 4 4 3 6 3 3 2 3 10 13 12 11 7 4 5 6 6 6 6 7 6 5 4 4 5
5 3 2 2 4 6 7 9 11 9 9 11 11 11 10 8 7 6 6 5 1 1 0 2 3 2 2 3 4 8 8 5 6 9 10 6 2 3 7 7 4 4 4 1 3 5 3 3 4 3 2 3 2 3 4 4 4 4 3 3 1 3 3 5 5 3 5 5 4 2 3 9 13 13 11 9 6 4 5 5 5 6 7 7 7 5 5 5
4 3 2 3 5 6 7 8 10 10 10 10 9 7 4 3 4 4 7 8 2 2 1 1 1 1 1 2 6 9 4 1 3 9 12 9 3 1 4 7 6 6 4 2 2 3 3 4 2 2 3 3 4 3 5 4 5 5 4 2 3 3 5 5 4 4 4 5 4 2 3 8 10 12 10 9 6 7 8 9 9 9 8 8 8 8 8 7
2 2 2 3 5 7 6 8 10 10 8 5 3 3 2 2 1 1 1 4 1 2 2 2 2 0 2 2 6 7 2 1 2 9 14 10 3 1 2 5 6 4 3 2 2 3 5 5 2 5 6 5 4 4 5 5 4 5 4 1 2 3 5 5 2 5 4 4 4 2 7 10 8 8 7 6 6 8 8 8 9 9 8 7 9 10 9 6
3 2 3 4 7 8 7 8 8 8 5 2 1 3 3 4 3 3 3 2 1 1 2 2 1 2 3 1 4 6 3 3 3 8 15 11 4 1 1 5 6 2 3 2 1 4 5 2 4 4 5 5 5 4 5 4 4 3 2 1 2 2 4 5 2 4 3 2 5 6 9 10 8 7 5 5 5 4 5 4 6 7 8 9 9 9 9 8
4 3 3 5 8 10 9 8 7 5 4 3 2 6 6 6 6 4 4 3 1 2 2 2 2 3 4 1 3 5 5 3 1 7 15 11 4 2 3 6 5 2 4 3 2 1 1 2 3 4 5 6 5 3 5 4 2 1 2 1 3 3 2 3 3 5 3 1 3 5 7 8 6 2 2 4 2 2 4 4 6 7 8 8 7 7 8 9
6 4 4 6 10 11 10 9 6 4 4 5 7 9 9 7 6 4 4 3 1 2 1 0 1 1 1 1 5 4 3 1 1 5 13 8 2 2 4 4 4 3 2 1 5 5 1 2 2 5 4 5 4 1 4 3 2 2 4 4 3 3 2 3 3 6 4 2 1 4 5 4 3 2 4 4 3 4 5 6 9 9 7 6 7 8 8 7
6 4 4 7 10 12 11 8 6 6 7 9 11 11 9 7 4 4 4 3 2 3 1 1 1 1 1 2 6 1 3 1 1 4 8 6 2 1 3 2 2 3 2 2 4 3 1 1 2 5 3 3 4 2 3 4 1 4 4 5 5 3 3 3 5 6 4 3 2 3 3 3 4 0 2 3 4 6 6 8 10 9 8 7 8 8 7 7
6 5 5 7 10 11 9 6 4 5 5 6 10 9 7 7 6 5 4 4 2 4 2 1 0 1 2 3 6 1 2 2 2 2 5 5 1 2 2 1 2 2 4 3 2 1 1 1 1 5 4 3 3 2 5 5 3 2 3 4 5 4 2 1 3 3 2 3 3 2 2 3 5 3 4 3 4 6 6 8 9 7 7 7 6 5 5 6
7 5 5 7 10 10 6 3 5 5 2 4 8 6 5 6 5 4 4 5 3 1 1 1 0 2 1 3 4 1 1 3 2 2 3 3 2 2 2 1 1 1 3 2 1 0 3 3 2 3 4 4 2 3 5 7 6 2 3 5 5 2 1 1 1 1 2 3 3 1 3 2 4 4 4 2 3 6 6 7 7 6 6 6 5 4 5 5
7 5 5 7 10 8 3 3 6 5 2 5 8 6 3 3 2 2 4 3 2 1 2 1 0 2 1 2 3 3 1 2 2 1 3 3 1 2 2 2 4 2 2 2 2 2 3 5 5 5 4 2 4 4 5 7 3 3 3 4 3 2 1 3 4 2 1 2 4 2 2 2 4 5 2 1 4 4 5 5 5 5 5 5 4 4 4 4
7 4 5 7 9 6 3 4 5 5 4 6 7 7 4 1 2 4 5 1 1 0 1 1 0 1 3 3 4 4 1 2 1 3 4 3 1 4 3 3 5 5 0 1 3 3 1 4 7 7 4 5 4 1 2 4 1 2 5 5 4 4 3 3 3 2 2 2 4 4 1 1 4 5 2 1 3 3 3 3 2 3 4 4 3 4 4 4
7 3 3 6 7 5 4 4 4 5 6 7 8 7 3 1 4 6 2 2 1 1 1 1 1 2 5 3 3 4 2 1 3 3 3 1 2 6 3 2 5 6 1 4 1 3 1 1 3 4 3 4 4 2 1 3 2 4 5 4 3 4 3 2 2 3 3 2 5 5 2 2 2 4 3 2 2 4 5 4 1 2 3 3 3 3 3 3
8 4 2 4 5 4 3 3 4 5 6 9 10 6 2 3 5 5 1 4 0 1 1 1 2 4 6 2 1 4 3 3 5 3 3 2 3 5 4 1 3 4 3 4 1 3 3 1 2 1 1 4 5 3 3 3 3 4 3 2 2 3 3 3 3 3 2 4 5 4 2 2 3 5 3 3 2 3 5 5 4 2 1 2 2 2 2 2
9 7 3 3 4 3 2 3 5 6 7 10 8 3 4 3 1 2 3 3 1 1 0 1 2 3 4 1 0 2 2 2 3 3 2 2 2 1 2 2 2 2 4 2 2 4 2 3 2 1 1 3 5 3 3 3 3 3 1 3 3 4 4 3 3 1 2 4 3 1 1 2 5 7 4 4 3 3 4 5 5 5 2 1 2 2 2 2
8 8 6 5 4 3 4 5 6 8 10 10 4 5 7 4 2 3 2 2 1 1 1 1 2 0 1 2 1 1 1 1 2 3 1 1 1 2 1 3 4 2 1 2 1 4 3 4 1 1 1 2 5 4 1 1 2 3 3 3 2 1 3 4 4 3 4 4 1 1 1 2 5 5 4 7 5 5 5 4 5 5 4 3 2 2 2 1
7 8 8 7 6 5 5 6 8 11 10 6 4 5 5 1 4 3 2 3 2 2 2 1 2 2 0 1 2 2 1 1 1 2 1 1 1 2 2 3 3 3 3 2 0 1 1 4 2 3 1 1 3 3 3 4 3 3 3 4 3 4 2 4 4 3 6 5 2 3 1 4 3 2 2 5 4 3 4 3 4 3 3 3 2 2 2 1
7 7 8 9 8 6 6 8 11 11 7 3 6 5 3 3 4 2 3 4 1 1 1 1 3 3 3 2 2 1 1 1 1 1 1 1 2 3 2 4 4 3 5 2 2 2 1 5 3 0 1 3 3 2 3 4 2 2 2 4 2 4 4 2 3 4 2 4 4 2 3 5 3 1 1 2 3 4 2 2 3 3 3 2 2 2 2 1
6 6 7 9 9 6 6 9 10 7 4 5 6 3 4 4 2 3 3 1 1 2 0 2 2 2 4 4 3 2 0 1 1 1 1 2 3 4 3 3 5 5 5 4 3 2 1 5 3 1 1 2 2 2 1 1 1 1 2 2 4 3 5 3 2 1 3 2 5 2 3 4 2 2 2 3 3 3 3 3 4 4 4 3 2 2 2 2
6 6 6 7 8 5 6 8 8 4 4 6 4 3 5 3 2 4 2 1 1 2 3 1 1 1 2 3 2 3 1 2 2 1 2 3 3 4 3 2 3 4 4 3 3 3 3 3 4 1 1 1 1 2 1 1 2 4 2 4 3 2 4 3 1 3 3 3 5 1 3 4 1 2 3 4 5 6 6 6 5 5 4 3 2 2 3 3
4 5 5 7 6 4 5 6 5 4 5 5 1 3 3 2 1 2 2 2 0 2 4 2 3 2 2 1 3 2 1 2 2 1 1 2 3 4 5 2 1 1 2 1 1 1 3 2 6 1 2 1 1 1 2 2 2 3 3 3 2 2 1 1 1 1 1 3 5 4 3 3 4 4 6 10 11 9 7 6 6 6 5 4 3 3 4 3
2 3 3 5 5 3 4 4 3 5 5 2 2 3 1 1 1 1 1 1 1 3 2 3 2 0 2 3 3 2 2 3 2 1 1 2 2 2 4 3 2 0 3 1 2 1 3 1 4 3 1 1 2 1 3 2 1 2 0 1 2 3 4 2 2 3 3 3 3 4 5 4 6 6 9 14 13 11 8 7 6 7 6 5 4 4 3 3
2 2 1 3 3 3 3 3 4 6 4 2 4 2 1 2 1 0 1 1 1 1 1 3 2 1 3 4 3 2 1 2 3 2 2 2 3 3 1 2 4 3 2 2 2 1 2 2 4 4 3 1 1 3 6 6 4 2 2 2 1 1 1 1 1 2 4 3 2 2 6 7 4 3 8 11 10 10 9 7 7 6 6 5 4 3 3 3
3 2 2 3 3 2 3 4 4 3 2 2 2 2 1 0 1 0 2 1 0 0 1 3 3 3 3 3 2 2 1 2 3 2 3 3 3 2 1 1 5 6 2 2 1 1 2 3 3 3 2 3 5 4 3 6 6 5 5 5 4 3 3 1 4 2 3 3 4 3 6 9 3 2 5 7 8 8 8 7 6 5 5 5 4 3 4 4
4 3 2 3 1 2 4 5 1 1 2 2 2 1 0 1 1 0 0 0 0 0 1 1 3 3 3 3 2 3 3 2 2 3 3 5 5 3 2 3 3 5 5 3 3 3 3 3 1 5 5 4 4 3 0 2 3 4 3 3 4 4 5 5 4 3 1 2 2 3 3 7 3 1 4 6 7 7 6 6 5 4 4 4 4 4 4 5
3 1 1 3 1 2 4 3 2 2 1 2 2 1 1 1 1 1 1 2 1 1 1 1 3 3 2 2 2 2 3 3 4 5 4 3 4 2 2 3 1 4 4 2 2 1 2 2 0 5 5 2 3 4 3 2 2 1 2 2 4 3 3 5 5 3 2 3 3 2 4 7 2 1 3 5 5 5 5 5 4 3 4 4 5 5 5 5
2 2 0 4 2 2 3 2 1 2 3 2 2 1 1 1 3 3 3 3 2 3 2 2 3 2 1 1 1 3 4 3 3 4 2 2 2 1 3 3 1 2 1 2 3 1 2 1 1 3 7 6 5 5 5 3 1 3 3 2 3 3 5 3 2 3 1 6 7 4 7 8 1 1 1 2 3 4 4 4 4 4 4 4 4 5 5 5
2 0 1 4 4 5 3 3 4 2 2 1 2 3 2 1 2 3 3 3 2 3 2 2 1 0 1 1 1 1 3 2 2 2 2 1 4 2 3 4 1 1 1 2 1 0 2 2 3 2 5 7 7 7 5 2 2 2 2 3 4 5 7 4 2 3 4 5 6 6 9 7 1 1 2 3 4 5 5 4 4 4 4 5 5 4 5 5
1 1 2 4 5 5 2 1 4 3 2 1 2 3 1 1 3 1 3 3 2 3 1 1 1 1 1 1 1 2 3 2 1 3 2 3 4 2 1 3 2 0 2 1 1 2 2 1 4 7 9 9 9 7 1 2 1 3 4 5 6 7 7 4 3 4 5 2 2 9 11 9 8 6 7 7 7 6 6 5 5 5 5 5 5 4 5 5
1 1 1 1 3 3 3 3 3 2 1 2 2 2 2 3 3 1 2 2 0 0 1 1 2 2 2 2 2 3 2 0 1 2 3 4 4 3 1 0 1 3 4 1 1 3 3 3 5 8 13 13 9 8 3 1 5 8 6 6 8 7 7 7 9 9 4 3 9 15 9 9 15 10 8 10 10 7 6 5 5 5 5 5 5 5 6 6
1 1 2 2 1 1 1 1 1 4 1 1 2 1 2 2 2 1 1 1 1 0 2 1 2 5 6 5 2 2 1 1 2 3 3 2 2 3 3 0 1 4 3 1 1 3 4 5 4 4 11 11 6 9 9 5 8 9 7 9 11 8 10 14 18 14 6 6 16 15 6 9 15 9 6 8 8 6 5 5 4 4 4 5 5 6 7 7
1 1 0 1 0 3 2 0 2 5 2 1 1 2 3 3 4 4 2 1 2 2 3 2 5 6 6 5 3 2 2 2 4 5 2 2 2 1 2 2 1 3 2 2 1 1 4 3 1 1 8 10 6 10 11 7 8 9 7 11 13 11 13 16 18 16 11 13 19 17 13 15 15 7 3 4 4 4 3 3 3 4 6 6 6 6 7 7
1 1 1 2 2 1 1 1 3 4 1 1 2 3 3 4 5 4 2 4 3 2 3 5 7 5 5 6 6 5 8 7 6 6 4 2 3 2 2 3 2 2 2 2 0 1 2 2 1 4 6 9 4 4 7 5 6 8 9 11 12 12 14 15 16 13 9 13 18 15 14 17 11 1 3 3 3 3 1 3 4 5 6 6 7 8 7 7
0 1 2 3 1 1 0 1 3 4 1 1 3 4 2 4 6 3 3 6 6 5 7 8 6 3 3 4 7 10 11 8 7 8 7 5 4 4 3 2 5 4 1 2 1 1 3 2 2 5 4 8 3 5 7 6 5 9 12 14 15 13 11 10 9 8 9 12 13 9 9 11 5 4 4 2 3 3 3 4 5 6 5 6 8 9 8 6
0 1 2 3 1 2 1 1 2 2 1 2 4 4 3 3 4 2 2 4 3 4 7 8 5 3 2 5 9 11 9 7 8 8 5 4 4 3 2 1 5 6 5 4 1 1 4 2 1 3 2 7 4 4 5 7 8 9 9 10 13 13 10 7 6 7 10 10 7 6 7 5 1 4 2 0 1 2 4 4 5 7 7 6 7 8 8 6
Wind_Direction
137 116 107 104 117 147 197 238 276 261 259 261 258 260 262 261 262 260 261 263 261 265 265 268 262 259 235 169 151 150 129 93 59 48 51 21 355 345 338 334 334 337 341 346 360 21 56 32 29 67 107 81 12 349 24 16 55 55 78 104 171 192 200 188 187 198 196 282 290 334 3 132 299 314 325 316 350 351 300 274 267 284 251 225 238 273 296 225
134 108 92 99 105 63 293 279 266 253 253 254 258 260 261 260 260 259 259 261 258 257 252 247 246 236 194 156 161 151 143 124 58 47 34 3 352 342 335 334 334 336 345 348 0 22 54 9 360 49 73 56 354 7 41 7 50 83 113 121 220 200 212 196 183 205 205 267 285 304 322 175 241 290 354 284 289 357 330 282 301 298 272 249 258 266 273 209
120 103 92 99 101 321 291 271 253 247 249 252 258 258 258 257 256 257 257 258 255 249 238 230 228 214 158 158 166 158 146 108 53 25 3 356 350 341 338 336 337 344 348 350 357 16 65 145 30 70 60 59 353 15 60 20 12 152 121 132 239 214 227 231 204 226 218 224 283 289 292 246 264 279 344 273 287 317 271 264 276 276 276 279 270 257 253 206
93 90 80 64 41 313 294 265 249 247 248 253 257 255 254 253 252 255 258 259 259 242 216 208 212 178 153 162 163 166 142 63 33 337 351 354 349 345 342 340 346 350 350 358 9 24 69 119 83 74 72 59 338 14 69 354 347 154 130 178 226 193 194 256 212 229 241 215 236 275 316 303 283 66 296 267 306 294 252 242 241 252 267 262 254 242 229 211
85 93 60 2 331 312 296 266 266 257 250 256 254 255 254 255 256 254 257 256 253 215 190 186 183 157 154 161 159 166 119 48 333 344 354 350 349 347 346 349 352 356 5 14 21 51 76 81 62 50 61 60 350 26 45 321 62 128 169 193 198 146 164 286 229 237 255 204 244 281 317 304 320 38 229 172 239 262 247 226 219 228 249 239 225 217 214 212
84 85 22 326 319 320 310 288 289 264 247 253 251 256 255 255 255 244 236 217 197 177 173 170 160 152 155 157 159 161 114 102 324 359 357 348 350 350 354 354 359 11 16 22 30 66 65 41 55 53 52 59 25 71 355 317 33 150 299 296 214 179 194 314 314 296 238 59 297 281 304 336 3 318 234 183 229 241 231 169 197 232 254 257 224 196 204 210
68 54 331 305 312 318 320 311 308 290 250 256 255 258 252 247 240 220 184 161 161 158 155 150 146 149 154 151 150 105 97 140 340 5 359 353 350 350 6 6 13 25 22 31 35 80 75 43 68 117 83 75 159 110 58 320 31 93 248 306 211 183 223 301 305 319 343 273 274 288 329 332 329 312 325 237 246 253 272 316 306 284 287 274 221 205 210 215
188 240 256 275 296 313 335 328 346 83 228 259 260 254 231 214 193 179 156 149 145 144 139 137 144 149 150 151 142 57 40 235 342 2 360 357 353 357 17 26 40 56 52 45 40 120 98 52 101 152 87 85 177 117 54 311 33 73 190 252 152 178 278 310 298 323 341 283 283 347 329 280 247 292 310 266 268 295 310 330 341 312 317 267 220 227 222 224
217 228 231 242 267 328 342 327 87 131 134 92 111 169 183 175 167 156 147 142 133 134 133 134 145 148 152 152 111 66 319 227 345 350 354 354 356 8 23 43 54 63 62 52 47 84 98 107 184 182 150 145 143 104 350 100 331 175 151 225 117 329 311 338 330 350 344 298 351 2 317 288 254 284 281 266 287 328 314 334 346 335 323 287 256 249 237 239
217 218 213 216 224 359 337 151 118 112 88 86 94 114 142 147 144 138 135 131 126 132 131 138 148 149 165 148 82 79 230 65 338 336 348 347 354 26 34 49 54 59 65 54 48 62 84 173 176 146 139 122 111 68 334 91 125 152 109 128 89 356 317 3 1 351 337 274 26 7 297 295 283 323 279 266 308 325 325 339 340 339 308 299 294 277 259 253
195 195 186 174 153 162 129 127 110 92 84 93 98 107 120 125 128 126 127 126 128 132 132 144 149 150 159 103 94 117 60 16 332 338 346 341 1 89 46 46 51 57 61 55 53 58 68 155 147 122 124 97 107 27 354 119 91 103 100 166 357 355 325 13 14 352 350 291 21 336 279 317 23 200 239 257 321 345 351 325 326 332 301 304 301 291 272 259
118 142 157 150 149 138 105 104 91 81 86 97 104 110 116 121 124 123 125 127 131 132 136 140 135 141 114 75 91 135 11 359 335 342 350 354 64 95 54 40 52 50 51 62 54 52 72 138 123 95 144 121 121 6 53 87 63 66 67 197 320 359 15 360 353 322 356 331 328 316 292 351 334 233 244 272 334 359 360 314 313 315 293 301 291 287 272 262
68 97 139 142 131 107 105 100 88 98 107 109 113 119 123 123 120 118 117 117 123 128 137 142 140 151 104 68 99 101 16 356 346 341 3 26 65 103 50 36 66 48 46 70 60 66 90 135 111 98 120 100 118 210 102 51 42 288 33 73 329 3 6 346 341 313 341 319 340 351 321 310 247 245 262 307 353 354 338 306 305 308 293 291 275 274 268 261
54 70 114 128 118 110 119 107 101 117 120 117 116 120 126 124 117 112 110 112 124 134 146 158 180 176 96 105 191 85 15 12 5 356 12 28 55 131 41 43 88 52 56 75 70 82 99 118 99 94 89 78 130 97 44 13 25 9 17 62 22 11 290 321 350 340 24 5 360 32 253 282 277 273 285 326 19 7 322 299 303 303 295 294 278 273 268 260
54 62 92 121 121 119 121 106 108 119 119 115 112 118 125 125 119 110 113 125 133 141 152 155 167 142 89 66 201 110 8 24 15 5 5 15 37 44 17 77 105 81 91 90 83 84 93 109 83 69 344 28 61 59 29 352 13 37 16 327 357 41 279 310 349 30 44 297 353 44 231 278 287 284 291 326 342 350 313 298 305 301 297 300 293 289 284 281
65 62 80 118 120 121 123 111 116 120 116 111 113 120 125 129 128 112 115 129 138 147 139 140 144 112 100 72 194 43 12 11 6 2 359 8 25 14 31 100 98 103 110 94 92 80 56 67 66 53 92 40 52 71 49 9 355 6 45 286 305 340 305 314 359 46 22 270 339 22 248 284 285 280 297 316 317 328 312 301 310 309 307 307 303 305 301 303
54 56 75 116 124 131 132 124 129 126 114 114 120 124 128 132 128 114 107 103 117 125 97 108 127 95 83 29 81 17 338 339 350 357 2 10 20 21 58 108 90 107 112 74 70 45 28 43 80 12 53 52 53 83 67 8 316 325 23 61 282 286 302 314 311 352 5 341 326 349 216 256 273 289 306 314 323 329 314 308 316 321 321 318 316 316 315 316
42 52 69 114 131 136 136 137 140 132 116 117 118 117 121 117 103 100 120 129 138 119 69 48 57 96 36 355 14 305 308 317 342 357 4 9 18 30 53 85 96 96 71 37 38 32 17 25 65 43 20 24 28 68 101 204 225 222 331 43 327 303 258 289 282 331 10 9 276 286 257 273 286 299 308 319 358 341 310 309 316 326 333 330 335 332 328 329
36 49 71 112 135 138 136 144 146 135 124 121 118 117 114 104 82 64 61 70 122 264 318 336 36 124 246 314 306 309 310 309 347 3 6 9 355 21 46 55 76 80 62 20 14 27 28 20 46 62 360 2 25 87 129 163 150 151 170 142 215 294 284 268 266 293 359 340 271 219 265 290 301 307 314 325 354 356 323 342 352 349 355 353 357 354 348 353
28 52 111 133 144 145 138 144 148 143 133 123 122 118 102 80 40 19 35 47 91 158 106 217 145 96 288 310 324 332 330 259 4 13 11 5 351 13 30 27 34 49 64 190 313 12 73 63 61 175 200 201 201 158 113 117 112 112 118 124 196 247 283 273 280 297 342 338 274 211 289 287 290 296 306 319 351 25 5 9 16 9 9 4 9 8 5 4
35 65 135 161 157 149 141 146 152 153 145 126 120 112 142 162 64 331 17 27 212 160 44 250 191 15 286 286 338 345 6 168 347 14 14 4 7 72 334 19 52 45 12 254 279 351 62 80 191 214 198 176 165 144 101 90 81 87 125 157 267 226 256 264 280 298 352 9 285 339 332 298 289 296 306 335 15 28 7 11 13 7 14 15 19 17 12 6
53 82 134 166 164 153 147 147 153 161 166 200 160 116 146 175 149 151 139 89 273 73 31 323 352 335 299 263 338 352 51 62 342 357 6 2 21 76 316 45 87 123 355 350 303 2 39 117 214 200 162 109 83 103 85 84 94 80 124 112 299 253 272 289 317 310 350 357 286 349 340 301 301 300 310 358 27 25 355 19 22 12 27 27 24 21 19 23
40 77 130 162 163 156 150 145 150 167 193 227 160 123 124 125 126 126 100 90 334 351 26 15 39 339 331 353 350 14 61 64 294 330 353 3 29 66 83 70 86 107 13 24 148 113 48 239 212 151 132 99 72 67 80 86 105 123 160 157 281 292 340 292 310 322 326 299 284 329 317 299 319 318 37 9 349 12 356 35 49 37 39 32 31 31 30 33
31 65 133 163 162 159 154 147 144 134 137 140 122 121 123 113 112 107 82 78 327 318 9 341 153 193 321 345 346 18 95 96 203 315 350 18 87 38 83 111 89 71 9 48 127 130 168 256 140 111 94 100 109 80 101 110 337 275 199 181 228 262 245 237 297 323 332 31 328 326 316 308 346 94 95 3 342 33 16 39 45 34 36 34 40 40 36 39
30 58 129 162 167 166 158 151 140 108 104 116 121 120 116 106 98 92 84 72 320 303 326 269 196 166 202 343 343 342 142 66 205 287 346 32 117 26 73 131 94 104 206 180 114 112 137 250 142 110 67 88 129 218 195 164 309 304 230 190 186 192 218 269 334 344 358 358 314 16 12 306 313 358 162 316 13 45 23 37 38 23 24 29 37 34 29 37
35 64 119 155 167 167 161 156 150 120 97 117 132 124 107 99 87 81 82 61 325 288 324 245 170 359 259 338 346 24 118 351 294 308 6 32 75 129 104 337 26 131 187 164 113 123 111 21 81 121 123 104 107 261 237 165 120 309 241 171 154 137 133 325 352 12 4 293 282 70 120 241 304 303 218 264 42 52 30 37 33 18 21 24 29 25 23 32
37 68 116 148 159 164 167 177 179 165 98 140 153 140 112 97 75 63 68 42 337 259 82 246 309 30 258 307 340 98 128 310 321 15 26 20 339 95 95 274 41 143 182 134 10 265 129 105 82 111 114 112 137 257 229 149 123 247 220 137 127 131 237 225 127 155 240 282 317 22 147 189 287 271 232 210 96 59 34 33 22 16 17 15 21 20 24 30
32 67 114 147 157 158 153 153 176 181 147 158 166 165 141 84 37 55 87 59 317 120 86 275 233 39 328 322 18 75 268 316 69 276 336 30 350 38 47 202 167 166 176 141 258 266 129 159 185 155 116 166 213 233 197 153 135 247 184 122 113 129 191 151 137 180 277 344 321 299 146 159 262 269 296 162 131 84 53 48 24 14 8 6 16 16 24 30
30 69 112 147 159 152 116 125 156 167 159 156 159 168 171 48 20 58 81 107 289 62 81 328 174 318 341 357 15 31 351 352 72 280 324 43 45 44 73 171 133 126 83 88 209 227 139 196 192 153 148 208 221 269 183 153 166 193 127 91 62 61 67 88 110 137 55 2 253 245 152 147 262 272 300 76 136 140 128 101 39 6 354 351 6 11 18 27
30 60 121 147 159 149 116 112 127 141 149 154 158 168 175 30 51 61 44 245 268 317 231 26 263 320 13 23 342 2 37 334 325 323 346 34 8 36 92 166 100 112 356 6 173 224 331 294 199 148 173 190 151 67 71 106 117 129 106 77 56 43 44 55 69 100 66 300 248 244 240 155 266 274 219 188 189 169 154 141 142 348 350 337 346 3 9 18
30 45 115 145 155 156 134 110 126 137 144 151 156 153 104 33 68 91 232 246 218 324 350 33 323 13 39 69 281 354 22 333 328 358 19 359 354 25 67 92 52 66 2 356 311 295 357 11 253 243 181 137 111 67 44 59 82 103 91 65 27 352 15 26 353 44 89 263 255 249 242 161 219 261 233 217 236 172 156 154 160 164 337 323 325 339 351 3
31 41 71 123 137 141 126 132 143 143 147 150 144 102 73 51 39 160 264 301 357 316 21 24 318 27 33 24 211 335 337 334 3 51 65 20 351 347 96 174 195 14 339 297 308 326 301 226 261 321 209 146 121 83 33 20 50 83 84 55 27 343 357 351 314 319 213 237 244 227 213 194 236 248 218 188 195 178 171 168 164 167 179 246 296 302 324 343
34 41 57 86 112 114 109 127 146 148 151 149 121 55 76 84 239 225 271 316 338 319 46 51 330 23 350 331 309 301 293 261 26 50 155 117 357 302 282 208 181 103 303 226 348 350 319 294 311 113 255 181 144 140 167 274 109 151 169 115 99 45 4 312 284 296 283 261 260 300 289 249 267 269 192 167 174 178 171 172 176 176 178 192 227 255 287 326
42 49 58 71 87 103 116 131 147 150 151 140 80 62 81 129 234 214 264 265 256 350 35 65 360 356 341 292 271 265 219 254 359 28 337 53 15 297 279 240 196 105 102 137 252 109 286 295 246 163 220 173 173 181 164 142 135 184 170 124 143 154 175 262 250 265 289 296 293 299 269 201 224 284 179 158 154 150 147 159 168 185 206 212 242 262 278 332
56 63 64 65 70 85 121 143 150 151 148 97 61 73 129 224 242 196 237 251 247 2 347 87 50 20 329 306 298 269 181 248 325 36 339 176 188 214 213 213 201 142 117 153 247 146 173 267 258 259 288 150 186 220 130 111 114 217 143 107 161 179 154 196 204 195 261 320 298 253 227 216 207 314 324 116 111 116 128 167 159 187 224 228 269 279 304 341
70 71 62 60 58 67 121 148 151 148 119 81 67 84 190 221 222 178 203 213 128 147 103 349 54 58 301 301 326 343 17 245 288 359 287 228 211 209 204 208 194 171 144 155 215 157 148 273 283 22 7 119 173 207 122 122 184 144 130 174 215 178 116 118 238 341 70 304 276 226 244 280 322 285 212 137 145 173 197 212 192 200 213 209 242 282 301 281
77 79 61 49 46 62 126 145 145 130 80 83 98 208 218 220 175 174 180 100 158 138 97 359 269 196 263 287 298 308 325 280 301 331 259 254 243 202 193 228 196 185 176 162 222 196 146 266 289 117 147 291 195 169 16 345 137 121 180 214 203 112 81 98 241 345 41 255 270 241 231 265 295 241 205 185 205 207 209 211 200 205 210 214 234 255 260 238
87 97 67 36 36 73 127 140 134 101 74 81 153 244 220 197 140 157 154 132 143 89 98 187 235 209 205 244 274 266 199 250 297 310 230 254 258 186 160 182 153 173 241 159 231 252 118 269 296 317 159 288 23 97 333 328 106 121 201 213 119 142 182 79 144 239 232 253 278 283 265 237 216 213 191 203 210 199 200 202 197 209 210 213 230 235 253 253
78 103 46 18 31 81 122 142 117 74 70 105 229 255 223 238 278 134 164 159 121 114 152 218 236 356 184 185 222 234 200 217 222 250 217 213 259 210 158 172 155 295 306 82 155 209 101 146 280 294 201 284 32 131 223 234 51 49 266 310 37 154 181 161 151 175 189 229 272 300 308 259 222 205 187 201 201 181 185 196 196 209 206 203 215 222 253 280
62 79 332 355 36 92 129 113 75 66 78 172 206 221 279 288 277 165 257 261 158 138 199 205 176 221 221 207 218 223 242 221 189 193 235 222 256 263 205 142 141 159 322 34 117 166 79 137 247 294 315 240 201 209 199 183 163 136 176 235 277 148 145 186 223 145 143 193 214 274 289 266 232 201 191 195 184 168 177 185 190 204 205 210 218 220 248 276
69 58 299 340 39 128 115 69 54 73 111 178 211 218 257 263 119 330 297 268 207 118 146 171 180 197 204 220 244 206 181 229 202 209 246 234 230 250 326 86 146 155 119 73 129 196 134 157 211 278 284 219 228 242 202 181 171 161 181 199 188 156 121 142 271 267 120 185 189 184 269 269 243 187 184 169 160 168 175 174 184 202 209 219 228 225 237 250
74 64 299 340 15 180 94 64 25 94 124 201 240 215 231 81 115 158 263 144 275 52 75 176 197 193 191 201 215 184 176 214 212 212 235 231 221 223 343 5 143 140 118 142 223 225 150 123 177 260 248 224 252 295 102 173 158 147 188 196 156 141 139 162 228 246 163 217 182 136 260 276 274 170 163 149 154 170 175 171 180 209 217 222 236 238 242 247
92 139 309 19 351 165 83 58 311 348 229 246 283 235 192 131 147 184 189 204 211 140 72 266 206 202 225 205 167 180 198 203 194 201 227 244 240 242 327 337 175 135 101 141 223 214 139 109 285 277 287 321 331 347 22 54 101 161 237 173 147 163 157 164 185 180 179 217 174 130 259 270 294 103 139 141 154 166 176 179 182 215 234 233 239 244 245 247
131 203 334 20 7 120 108 153 216 290 279 305 352 293 237 188 178 180 199 219 205 149 172 236 217 217 231 157 143 204 215 218 212 221 233 226 240 332 15 351 225 161 127 188 190 178 216 190 99 312 314 328 341 351 348 341 199 215 237 200 180 138 103 112 164 131 240 228 181 174 254 259 260 86 130 147 169 182 196 204 197 209 237 248 245 247 248 250
99 338 305 351 28 84 129 181 153 163 254 328 317 280 288 279 214 178 191 220 202 168 185 260 247 183 126 124 99 248 232 221 238 288 348 255 269 334 26 356 330 185 241 227 210 224 217 197 143 192 272 281 284 299 306 282 215 217 232 218 209 170 150 162 154 143 233 233 167 181 245 261 340 86 248 234 208 213 226 231 229 228 239 247 247 251 255 257
99 24 310 329 15 64 82 138 111 125 175 174 284 286 245 254 276 222 187 207 187 162 193 264 212 125 84 125 274 283 253 215 237 319 326 252 271 299 10 356 11 327 284 291 43 62 102 218 210 209 228 238 252 267 254 115 222 240 227 220 215 201 185 155 118 194 211 186 206 230 238 261 273 242 225 230 218 217 231 235 243 249 248 250 252 255 259 259
119 155 157 313 349 36 36 15 66 95 181 191 223 264 228 248 294 330 186 209 252 133 221 218 177 190 187 168 213 258 253 224 286 283 259 239 259 286 291 67 58 338 328 346 61 94 93 279 240 218 239 247 263 282 281 352 270 247 228 232 226 202 178 181 214 226 172 111 260 252 227 243 262 247 210 221 220 211 222 227 231 248 260 270 273 272 272 276
109 173 158 141 220 197 62 346 111 112 114 205 195 215 242 268 285 269 226 268 348 216 208 246 242 218 195 166 172 245 295 326 262 249 255 260 280 323 333 165 119 341 350 30 2 103 138 261 248 208 255 265 277 281 273 268 265 248 229 242 241 212 190 209 230 232 191 208 255 263 232 233 259 259 204 210 210 194 210 224 234 261 275 275 276 279 283 288
91 126 290 32 127 191 180 25 134 127 130 184 196 216 207 213 242 249 220 83 332 257 190 240 264 235 202 178 172 217 232 223 265 261 229 215 242 311 315 251 188 357 15 99 11 118 156 251 252 147 286 284 257 260 267 266 270 269 251 246 250 239 221 225 240 240 226 236 255 268 268 261 266 267 198 186 179 171 204 240 257 272 276 272 270 276 287 294
118 172 219 40 52 161 125 45 113 121 123 204 236 244 204 191 229 259 207 171 230 266 178 221 247 223 197 195 188 220 224 204 241 255 188 172 260 217 224 233 148 42 15 113 129 246 184 252 122 91 312 294 276 283 292 279 267 275 272 258 253 252 245 240 245 242 232 245 255 263 270 271 274 301 111 146 152 143 210 258 263 262 264 276 283 286 291 298
133 164 137 115 118 201 47 24 107 118 146 220 215 232 230 207 211 228 248 209 197 184 183 206 222 175 155 188 201 234 241 217 232 239 187 179 241 217 209 218 139 132 176 161 151 173 169 250 4 63 322 290 344 12 323 307 284 267 268 262 250 242 240 236 236 220 203 228 250 262 266 266 268 86 94 147 152 157 225 252 274 275 262 268 284 296 303 303
133 352 81 111 208 259 143 95 87 117 223 224 202 212 236 236 208 179 310 273 219 200 199 191 178 145 170 210 218 237 248 232 236 241 201 191 235 215 203 183 128 137 169 170 162 163 155 176 20 80 269 280 325 360 319 321 311 279 259 246 239 236 236 240 249 226 202 199 217 237 246 253 147 84 65 123 168 239 249 249 275 286 287 282 279 290 300 296